Location: Colebrook
(42.0017°N, 73.0973°W)
Time: 20:58:33
(UTC-04:00)

ISS - Pass Details

Date: 01 October 2021
Orbit: 417 x 423 km, 51.6° (Epoch: 21 October)

Event Time Altitude Azimuth Distance (km) Brightness Sun altitude
Rises 18:53:02 0° 306° (NW) 2,364 1.0 -4.5°
Reaches altitude 10° 18:55:31 10° 324° (NW) 1,500 -0.4 -4.9°
Maximum altitude 18:58:05 20° 14° (NNE) 1,035 -1.9 -5.4°
Drops below altitude 10° 19:00:40 10° 64° (ENE) 1,499 -1.5 -5.9°
Enters shadow 19:01:27 - 72° (ENE) 1,753 -1.2 -6.0°
